Location: �quirre
(50.4736°N, 2.2351°E)
Time: 21:52:16
(UTC+00:00)

Cosmos 1603 - Pass Details

Date: 07 August 2020
Orbit: 831 x 860 km, 71.0° (Epoch: 22 September)

Event Time Altitude Azimuth Distance (km) Brightness Sun altitude
Rises 02:36:46 0° 331° (NNW) 3,448 7.2 -14.6°
Reaches altitude 10° 02:39:17 10° 335° (NNW) 2,507 6.5 -14.3°
Maximum altitude 02:45:00 63° 56° (ENE) 959 4.3 -13.7°
Drops below altitude 10° 02:50:39 10° 138° (SE) 2,480 6.1 -13.1°
Sets 02:53:07 0° 141° (SE) 3,408 6.8 -12.8°
